| time (UTC) | temp F | wind direction | speed MPH | gust MPH | rain 1hr in | rain 24hr in | rain mn in | humidity % | barometer mb |
| 20260507062510 | 40 | 0 | 0.0 | 0.0 | 0.01 | 0.12 | 0.12 | 94 | 1015.7 |
| 20260507062012 | 40 | 0 | 0.0 | 0.0 | 0.02 | 0.12 | 0.12 | 93 | 1015.7 |
| 20260507061528 | 40 | 0 | 0.0 | 0.0 | 0.02 | 0.12 | 0.12 | 93 | 1015.6 |
| 20260507061010 | 40 | 0 | 0.0 | 0.0 | 0.02 | 0.12 | 0.12 | 93 | 1015.6 |
| 20260507060507 | 40 | 0 | 0.0 | 0.0 | 0.03 | 0.12 | 0.12 | 93 | 1015.5 |
| 20260507060030 | 40 | 0 | 0.0 | 0.0 | 0.03 | 0.12 | 0.12 | 93 | 1015.3 |
| 20260507055509 | 40 | 0 | 0.0 | 0.0 | 0.04 | 0.12 | 0.12 | 92 | 1015.3 |
| 20260507055009 | 40 | 0 | 0.0 | 0.0 | 0.04 | 0.12 | 0.12 | 92 | 1015.2 |
| 20260507054528 | 40 | 0 | 0.0 | 0.0 | 0.04 | 0.12 | 0.12 | 92 | 1015.1 |
| 20260507054012 | 40 | 0 | 0.0 | 0.0 | 0.03 | 0.11 | 0.11 | 91 | 1015.3 |
| 20260507053510 | 41 | 0 | 0.0 | 1.0 | 0.03 | 0.11 | 0.11 | 91 | 1015.3 |
| 20260507053028 | 41 | 159 | 0.0 | 1.0 | 0.03 | 0.11 | 0.11 | 91 | 1015.2 |
| 20260507052511 | 41 | 152 | 0.0 | 2.0 | 0.03 | 0.11 | 0.11 | 90 | 1015.3 |
| 20260507052010 | 41 | 0 | 0.0 | 2.0 | 0.02 | 0.10 | 0.10 | 90 | 1015.3 |
| 20260507051529 | 41 | 253 | 0.0 | 4.0 | 0.02 | 0.10 | 0.10 | 90 | 1015.2 |
| 20260507051010 | 42 | 267 | 1.0 | 6.0 | 0.02 | 0.10 | 0.10 | 89 | 1015.2 |
| 20260507050511 | 42 | 223 | 1.0 | 6.0 | 0.01 | 0.09 | 0.09 | 90 | 1015.2 |
| 20260507050029 | 42 | 269 | 0.0 | 1.0 | 0.02 | 0.09 | 0.09 | 91 | 1015.2 |
| 20260507045510 | 42 | 206 | 0.0 | 1.0 | 0.01 | 0.08 | 0.08 | 91 | 1015.1 |
| 20260507045009 | 42 | 0 | 0.0 | 1.0 | 0.01 | 0.08 | 0.08 | 92 | 1015.0 |
| 20260507044530 | 42 | 0 | 0.0 | 0.0 | 0.01 | 0.08 | 0.08 | 92 | 1015.0 |
| 20260507044009 | 42 | 0 | 0.0 | 0.0 | 0.01 | 0.08 | 0.08 | 91 | 1015.0 |
| 20260507043509 | 42 | 0 | 0.0 | 0.0 | 0.02 | 0.08 | 0.08 | 91 | 1014.9 |
| 20260507043035 | 42 | 0 | 0.0 | 0.0 | 0.02 | 0.08 | 0.08 | 91 | 1014.9 |
| 20260507042510 | 42 | 0 | 0.0 | 0.0 | 0.02 | 0.08 | 0.08 | 91 | 1014.8 |
| 20260507042012 | 42 | 0 | 0.0 | 0.0 | 0.02 | 0.08 | 0.08 | 91 | 1014.8 |
| 20260507041528 | 42 | 0 | 0.0 | 0.0 | 0.02 | 0.08 | 0.08 | 90 | 1014.7 |
| 20260507041010 | 42 | 0 | 0.0 | 1.0 | 0.02 | 0.08 | 0.08 | 90 | 1014.7 |
| 20260507040510 | 43 | 0 | 0.0 | 1.0 | 0.01 | 0.07 | 0.07 | 89 | 1014.7 |
| 20260507040029 | 43 | 0 | 0.0 | 1.0 | 0.02 | 0.07 | 0.07 | 88 | 1014.6 |
| 20260507035507 | 43 | 0 | 0.0 | 1.0 | 0.02 | 0.07 | 0.07 | 86 | 1014.5 |
| 20260507035011 | 43 | 0 | 0.0 | 1.0 | 0.02 | 0.07 | 0.07 | 84 | 1014.6 |
| 20260507034530 | 43 | 0 | 0.0 | 1.0 | 0.02 | 0.07 | 0.07 | 84 | 1014.5 |
| 20260507034012 | 43 | 0 | 0.0 | 1.0 | 0.02 | 0.07 | 0.07 | 84 | 1014.6 |
| 20260507033510 | 44 | 0 | 0.0 | 1.0 | 0.01 | 0.06 | 0.06 | 84 | 1014.4 |
| 20260507033029 | 44 | 157 | 0.0 | 1.0 | 0.01 | 0.06 | 0.06 | 83 | 1014.5 |
| 20260507032510 | 44 | 157 | 0.0 | 1.0 | 0.01 | 0.06 | 0.06 | 83 | 1014.5 |
| 20260507032012 | 44 | 0 | 0.0 | 3.0 | 0.01 | 0.06 | 0.06 | 82 | 1014.4 |
| 20260507031528 | 44 | 179 | 1.0 | 3.0 | 0.01 | 0.06 | 0.06 | 81 | 1014.4 |
| 20260507031008 | 44 | 248 | 0.0 | 2.0 | 0.01 | 0.06 | 0.06 | 82 | 1014.3 |
| 20260507030512 | 44 | 288 | 0.0 | 2.0 | 0.01 | 0.06 | 0.06 | 84 | 1014.3 |
| 20260507030032 | 44 | 0 | 0.0 | 2.0 | 0.00 | 0.05 | 0.05 | 88 | 1014.3 |
| 20260507025509 | 44 | 144 | 1.0 | 2.0 | 0.00 | 0.05 | 0.05 | 86 | 1014.2 |
| 20260507025009 | 44 | 0 | 0.0 | 1.0 | 0.00 | 0.05 | 0.05 | 86 | 1014.3 |
| 20260507024528 | 44 | 0 | 0.0 | 1.0 | 0.00 | 0.05 | 0.05 | 86 | 1014.2 |
| 20260507024008 | 44 | 0 | 0.0 | 1.0 | 0.00 | 0.05 | 0.05 | 85 | 1014.2 |
| 20260507023512 | 44 | 0 | 0.0 | 0.0 | 0.00 | 0.05 | 0.05 | 86 | 1014.1 |
| 20260507023030 | 44 | 0 | 0.0 | 0.0 | 0.00 | 0.05 | 0.05 | 85 | 1014.1 |
| 20260507022509 | 44 | 0 | 0.0 | 0.0 | 0.00 | 0.05 | 0.05 | 84 | 1014.0 |
| 20260507022009 | 45 | 0 | 0.0 | 0.0 | 0.01 | 0.05 | 0.05 | 85 | 1014.0 |
| 20260507021530 | 45 | 0 | 0.0 | 0.0 | 0.01 | 0.05 | 0.05 | 83 | 1013.8 |
| 20260507021012 | 45 | 0 | 0.0 | 0.0 | 0.01 | 0.05 | 0.05 | 83 | 1013.9 |
| 20260507020510 | 45 | 0 | 0.0 | 1.0 | 0.01 | 0.05 | 0.05 | 81 | 1014.0 |
| 20260507020033 | 45 | 0 | 0.0 | 1.0 | 0.01 | 0.05 | 0.05 | 82 | 1013.9 |
| 20260507015509 | 45 | 0 | 0.0 | 1.0 | 0.01 | 0.05 | 0.05 | 82 | 1013.9 |
| 20260507015013 | 45 | 0 | 0.0 | 1.0 | 0.01 | 0.05 | 0.05 | 82 | 1013.9 |
| 20260507014528 | 45 | 0 | 0.0 | 4.0 | 0.01 | 0.05 | 0.05 | 82 | 1013.8 |
| 20260507014009 | 45 | 278 | 0.0 | 4.0 | 0.01 | 0.05 | 0.05 | 80 | 1013.8 |
| 20260507013506 | 45 | 244 | 1.0 | 3.0 | 0.01 | 0.05 | 0.05 | 78 | 1013.8 |
| 20260507013036 | 45 | 238 | 0.0 | 2.0 | 0.01 | 0.05 | 0.05 | 80 | 1013.8 |
| 20260507012513 | 45 | 278 | 1.0 | 3.0 | 0.01 | 0.05 | 0.05 | 80 | 1013.7 |
| 20260507012014 | 45 | 291 | 1.0 | 3.0 | 0.00 | 0.04 | 0.04 | 79 | 1013.8 |
| 20260507011536 | 46 | 287 | 1.0 | 2.0 | 0.00 | 0.04 | 0.04 | 79 | 1013.8 |
| 20260507011009 | 46 | 0 | 1.0 | 4.0 | 0.00 | 0.04 | 0.04 | 79 | 1013.7 |
| 20260507010509 | 46 | 277 | 1.0 | 6.0 | 0.00 | 0.04 | 0.04 | 77 | 1013.7 |
| 20260507010029 | 46 | 260 | 2.0 | 6.0 | 0.00 | 0.04 | 0.04 | 76 | 1013.6 |
| 20260507005515 | 46 | 246 | 1.0 | 6.0 | 0.00 | 0.04 | 0.04 | 73 | 1013.6 |
| 20260507005009 | 46 | 215 | 2.0 | 6.0 | 0.00 | 0.04 | 0.04 | 72 | 1013.5 |
| 20260507004528 | 46 | 265 | 1.0 | 5.0 | 0.00 | 0.04 | 0.04 | 73 | 1013.4 |
| 20260507004010 | 46 | 276 | 0.0 | 2.0 | 0.00 | 0.04 | 0.04 | 76 | 1013.4 |
| 20260507003511 | 46 | 0 | 0.0 | 3.0 | 0.00 | 0.04 | 0.04 | 76 | 1013.4 |
| 20260507003029 | 46 | 290 | 1.0 | 3.0 | 0.00 | 0.04 | 0.04 | 74 | 1013.4 |
| 20260507002507 | 46 | 261 | 1.0 | 3.0 | 0.00 | 0.04 | 0.04 | 76 | 1013.4 |
| 20260507002011 | 46 | 277 | 0.0 | 4.0 | 0.00 | 0.04 | 0.04 | 78 | 1013.4 |
| 20260507001533 | 46 | 290 | 1.0 | 4.0 | 0.00 | 0.04 | 0.04 | 78 | 1013.4 |
| 20260507001009 | 46 | 271 | 1.0 | 4.0 | 0.00 | 0.04 | 0.04 | 78 | 1013.3 |
| 20260507000514 | 45 | 263 | 1.0 | 4.0 | 0.00 | 0.04 | 0.04 | 78 | 1013.2 |
| 20260507000030 | 45 | 202 | 1.0 | 4.0 | 0.00 | 0.04 | 0.04 | 81 | 1013.3 |
| 20260506235508 | 45 | 319 | 0.0 | 1.0 | 0.00 | 0.04 | 0.04 | 84 | 1013.2 |
| 20260506235006 | 45 | 0 | 0.0 | 1.0 | 0.00 | 0.04 | 0.04 | 86 | 1013.1 |
| 20260506234536 | 45 | 282 | 0.0 | 1.0 | 0.00 | 0.04 | 0.04 | 84 | 1013.2 |
| 20260506234010 | 45 | 0 | 0.0 | 6.0 | 0.00 | 0.04 | 0.04 | 86 | 1013.1 |
| 20260506233507 | 45 | 0 | 0.0 | 6.0 | 0.00 | 0.04 | 0.04 | 84 | 1013.1 |
| 20260506233029 | 44 | 133 | 1.0 | 5.0 | 0.00 | 0.04 | 0.04 | 83 | 1013.0 |
| 20260506232510 | 44 | 80 | 0.0 | 1.0 | 0.01 | 0.04 | 0.04 | 86 | 1013.1 |
| 20260506232013 | 44 | 0 | 0.0 | 2.0 | 0.01 | 0.04 | 0.04 | 89 | 1013.1 |
| 20260506231533 | 44 | 68 | 0.0 | 2.0 | 0.02 | 0.04 | 0.04 | 88 | 1012.9 |
| 20260506231014 | 44 | 50 | 0.0 | 1.0 | 0.03 | 0.04 | 0.04 | 89 | 1013.1 |
| 20260506230509 | 44 | 51 | 0.0 | 1.0 | 0.03 | 0.04 | 0.04 | 88 | 1013.0 |
| 20260506230026 | 44 | 0 | 0.0 | 0.0 | 0.03 | 0.04 | 0.04 | 90 | 1013.0 |
| 20260506225511 | 44 | 0 | 0.0 | 1.0 | 0.03 | 0.04 | 0.04 | 90 | 1012.9 |
| 20260506225010 | 44 | 0 | 0.0 | 1.0 | 0.03 | 0.04 | 0.04 | 89 | 1012.9 |
| 20260506224530 | 44 | 293 | 0.0 | 1.0 | 0.03 | 0.04 | 0.04 | 89 | 1012.9 |
| 20260506224009 | 44 | 0 | 0.0 | 1.0 | 0.03 | 0.04 | 0.04 | 88 | 1012.9 |
| 20260506223508 | 44 | 0 | 0.0 | 1.0 | 0.03 | 0.04 | 0.04 | 88 | 1012.9 |
| 20260506223031 | 44 | 0 | 0.0 | 1.0 | 0.03 | 0.04 | 0.04 | 87 | 1013.0 |
| 20260506222507 | 44 | 286 | 0.0 | 1.0 | 0.02 | 0.03 | 0.03 | 85 | 1012.8 |
| 20260506222010 | 44 | 0 | 0.0 | 3.0 | 0.02 | 0.03 | 0.03 | 85 | 1013.0 |
| 20260506221529 | 45 | 249 | 1.0 | 6.0 | 0.01 | 0.02 | 0.02 | 81 | 1012.9 |
| 20260506221011 | 46 | 274 | 2.0 | 6.0 | 0.00 | 0.01 | 0.01 | 76 | 1012.8 |
| 20260506220509 | 47 | 284 | 1.0 | 4.0 | 0.00 | 0.01 | 0.01 | 73 | 1012.8 |
| 20260506220030 | 47 | 270 | 1.0 | 3.0 | 0.00 | 0.01 | 0.01 | 71 | 1012.5 |
| 20260506215508 | 47 | 258 | 1.0 | 4.0 | 0.00 | 0.01 | 0.01 | 70 | 1012.7 |
| 20260506215010 | 47 | 175 | 2.0 | 4.0 | 0.00 | 0.01 | 0.01 | 70 | 1012.5 |
| 20260506214529 | 47 | 245 | 2.0 | 4.0 | 0.00 | 0.01 | 0.01 | 70 | 1012.5 |
| 20260506214011 | 47 | 294 | 2.0 | 6.0 | 0.00 | 0.01 | 0.01 | 73 | 1012.5 |
| 20260506213511 | 47 | 285 | 2.0 | 6.0 | 0.00 | 0.01 | 0.01 | 73 | 1012.6 |
| 20260506213028 | 47 | 273 | 2.0 | 9.0 | 0.00 | 0.01 | 0.01 | 73 | 1012.5 |
| 20260506212510 | 47 | 250 | 2.0 | 9.0 | 0.00 | 0.01 | 0.01 | 71 | 1012.4 |
| 20260506212011 | 47 | 157 | 1.0 | 3.0 | 0.00 | 0.01 | 0.01 | 68 | 1012.4 |
| 20260506211529 | 47 | 285 | 0.0 | 6.0 | 0.00 | 0.01 | 0.01 | 67 | 1012.4 |
| 20260506211009 | 47 | 253 | 1.0 | 6.0 | 0.00 | 0.01 | 0.01 | 69 | 1012.3 |
| 20260506210510 | 47 | 168 | 1.0 | 5.0 | 0.00 | 0.01 | 0.01 | 70 | 1012.3 |
| 20260506210027 | 47 | 253 | 2.0 | 7.0 | 0.00 | 0.01 | 0.01 | 69 | 1012.1 |
| 20260506205509 | 47 | 245 | 2.0 | 7.0 | 0.00 | 0.01 | 0.01 | 70 | 1012.3 |
| 20260506205009 | 47 | 263 | 2.0 | 7.0 | 0.00 | 0.01 | 0.01 | 69 | 1012.2 |
| 20260506204533 | 47 | 225 | 1.0 | 4.0 | 0.00 | 0.01 | 0.01 | 67 | 1012.2 |
| 20260506204011 | 47 | 265 | 1.0 | 3.0 | 0.00 | 0.01 | 0.01 | 68 | 1012.1 |
| 20260506203508 | 47 | 150 | 0.0 | 2.0 | 0.00 | 0.01 | 0.01 | 69 | 1012.2 |
| 20260506203043 | 46 | 277 | 1.0 | 3.0 | 0.00 | 0.01 | 0.01 | 69 | 1012.3 |
| 20260506202509 | 46 | 0 | 1.0 | 3.0 | 0.00 | 0.01 | 0.01 | 71 | 1012.0 |
| 20260506202011 | 46 | 273 | 1.0 | 2.0 | 0.00 | 0.01 | 0.01 | 71 | 1012.0 |
| 20260506201609 | 46 | 255 | 0.0 | 2.0 | 0.00 | 0.01 | 0.01 | 73 | 1012.0 |
| 20260506201010 | 46 | 279 | 0.0 | 2.0 | 0.00 | 0.01 | 0.01 | 74 | 1011.9 |
| 20260506200510 | 46 | 0 | 0.0 | 2.0 | 0.00 | 0.01 | 0.01 | 78 | 1011.9 |
| 20260506200031 | 45 | 291 | 0.0 | 2.0 | 0.00 | 0.01 | 0.01 | 75 | 1011.8 |
| 20260506195510 | 45 | 294 | 1.0 | 2.0 | 0.00 | 0.01 | 0.01 | 76 | 1011.9 |
| 20260506195010 | 45 | 55 | 1.0 | 2.0 | 0.00 | 0.01 | 0.01 | 75 | 1011.9 |
| 20260506194527 | 45 | 338 | 0.0 | 2.0 | 0.00 | 0.01 | 0.01 | 75 | 1011.9 |
| 20260506194012 | 45 | 285 | 0.0 | 2.0 | 0.00 | 0.01 | 0.01 | 78 | 1011.9 |
| 20260506193508 | 45 | 280 | 0.0 | 2.0 | 0.00 | 0.01 | 0.01 | 77 | 1011.9 |
| 20260506193028 | 44 | 0 | 0.0 | 2.0 | 0.01 | 0.01 | 0.01 | 77 | 1011.8 |
| 20260506192507 | 44 | 0 | 0.0 | 2.0 | 0.01 | 0.01 | 0.01 | 78 | 1011.8 |
| 20260506192009 | 44 | 267 | 1.0 | 2.0 | 0.01 | 0.01 | 0.01 | 76 | 1011.8 |
| 20260506191530 | 44 | 198 | 0.0 | 2.0 | 0.01 | 0.01 | 0.01 | 78 | 1011.7 |
| 20260506191010 | 44 | 97 | 0.0 | 2.0 | 0.01 | 0.01 | 0.01 | 79 | 1011.8 |
| 20260506190511 | 44 | 148 | 0.0 | 2.0 | 0.01 | 0.01 | 0.01 | 80 | 1011.8 |
| 20260506190036 | 43 | 235 | 0.0 | 1.0 | 0.01 | 0.01 | 0.01 | 80 | 1011.8 |
| 20260506185510 | 43 | 0 | 0.0 | 1.0 | 0.01 | 0.01 | 0.01 | 81 | 1011.8 |
| 20260506185009 | 43 | 0 | 0.0 | 1.0 | 0.01 | 0.01 | 0.01 | 81 | 1011.8 |
| 20260506184527 | 43 | 270 | 0.0 | 1.0 | 0.01 | 0.01 | 0.01 | 83 | 1011.8 |
| 20260506184011 | 43 | 264 | 0.0 | 1.0 | 0.01 | 0.01 | 0.01 | 83 | 1011.7 |
| 20260506183510 | 43 | 0 | 0.0 | 0.0 | 0.01 | 0.01 | 0.01 | 82 | 1011.8 |
| 20260506183028 | 43 | 0 | 0.0 | 0.0 | 0.00 | 0.00 | 0.00 | 84 | 1011.8 |
| 20260506182507 | 43 | 0 | 0.0 | 0.0 | 0.00 | 0.00 | 0.00 | 85 | 1011.8 |
| 20260506182014 | 42 | 0 | 0.0 | 1.0 | 0.00 | 0.00 | 0.00 | 84 | 1011.7 |
| 20260506181528 | 42 | 0 | 0.0 | 1.0 | 0.00 | 0.00 | 0.00 | 82 | 1011.7 |
| 20260506181008 | 42 | 280 | 0.0 | 1.0 | 0.00 | 0.00 | 0.00 | 81 | 1011.7 |
| 20260506180510 | 42 | 280 | 0.0 | 1.0 | 0.00 | 0.00 | 0.00 | 81 | 1011.6 |
| 20260506180028 | 42 | 0 | 0.0 | 1.0 | 0.00 | 0.00 | 0.00 | 80 | 1011.7 |
| 20260506175511 | 43 | 265 | 0.0 | 1.0 | 0.00 | 0.00 | 0.00 | 81 | 1011.5 |
| 20260506175011 | 43 | 0 | 0.0 | 1.0 | 0.00 | 0.00 | 0.00 | 82 | 1011.5 |
| 20260506174528 | 42 | 0 | 0.0 | 1.0 | 0.00 | 0.00 | 0.00 | 81 | 1011.6 |
| 20260506174013 | 42 | 0 | 0.0 | 1.0 | 0.00 | 0.00 | 0.00 | 82 | 1011.5 |
| 20260506173508 | 42 | 0 | 0.0 | 1.0 | 0.00 | 0.00 | 0.00 | 81 | 1011.6 |
| 20260506173032 | 42 | 20 | 0.0 | 1.0 | 0.00 | 0.00 | 0.00 | 82 | 1011.5 |
| 20260506172511 | 42 | 0 | 0.0 | 1.0 | 0.00 | 0.00 | 0.00 | 82 | 1011.4 |
| 20260506172010 | 42 | 0 | 0.0 | 1.0 | 0.00 | 0.00 | 0.00 | 83 | 1011.3 |
| 20260506171527 | 42 | 20 | 0.0 | 1.0 | 0.00 | 0.00 | 0.00 | 84 | 1011.4 |
| 20260506171010 | 42 | 0 | 0.0 | 1.0 | 0.00 | 0.00 | 0.00 | 84 | 1011.4 |
| 20260506170513 | 42 | 0 | 0.0 | 1.0 | 0.00 | 0.00 | 0.00 | 85 | 1011.4 |
| 20260506170028 | 41 | 0 | 0.0 | 1.0 | 0.00 | 0.00 | 0.00 | 84 | 1011.4 |
| 20260506165510 | 41 | 0 | 0.0 | 1.0 | 0.00 | 0.00 | 0.00 | 85 | 1011.4 |
| 20260506165010 | 41 | 0 | 0.0 | 1.0 | 0.00 | 0.00 | 0.00 | 86 | 1011.3 |
| 20260506164530 | 41 | 0 | 0.0 | 0.0 | 0.00 | 0.00 | 0.00 | 86 | 1011.3 |
| 20260506164009 | 41 | 0 | 0.0 | 0.0 | 0.00 | 0.00 | 0.00 | 88 | 1011.2 |
| 20260506163511 | 41 | 0 | 0.0 | 0.0 | 0.00 | 0.00 | 0.00 | 89 | 1011.2 |
| 20260506163042 | 41 | 0 | 0.0 | 0.0 | 0.00 | 0.00 | 0.00 | 89 | 1011.2 |
| 20260506162511 | 41 | 0 | 0.0 | 0.0 | 0.00 | 0.00 | 0.00 | 90 | 1011.2 |
| 20260506162014 | 40 | 0 | 0.0 | 0.0 | 0.00 | 0.00 | 0.00 | 91 | 1011.0 |
| 20260506161528 | 40 | 0 | 0.0 | 0.0 | 0.00 | 0.00 | 0.00 | 92 | 1011.1 |
| 20260506161011 | 40 | 0 | 0.0 | 0.0 | 0.00 | 0.00 | 0.00 | 92 | 1011.1 |
| 20260506160509 | 39 | 0 | 0.0 | 0.0 | 0.00 | 0.00 | 0.00 | 93 | 1011.0 |
| 20260506160032 | 39 | 0 | 0.0 | 0.0 | 0.00 | 0.00 | 0.00 | 93 | 1011.0 |
| 20260506155512 | 39 | 0 | 0.0 | 0.0 | 0.00 | 0.00 | 0.00 | 93 | 1011.0 |
| 20260506155009 | 38 | 0 | 0.0 | 0.0 | 0.00 | 0.00 | 0.00 | 93 | 1011.0 |
| 20260506154537 | 38 | 0 | 0.0 | 0.0 | 0.00 | 0.00 | 0.00 | 93 | 1011.0 |
| 20260506154010 | 38 | 0 | 0.0 | 0.0 | 0.00 | 0.00 | 0.00 | 93 | 1010.9 |
| 20260506153509 | 37 | 0 | 0.0 | 0.0 | 0.00 | 0.00 | 0.00 | 93 | 1010.9 |
| 20260506153032 | 37 | 0 | 0.0 | 0.0 | 0.00 | 0.00 | 0.00 | 93 | 1011.0 |
| 20260506152515 | 37 | 0 | 0.0 | 0.0 | 0.00 | 0.00 | 0.00 | 93 | 1011.0 |
| 20260506152014 | 37 | 0 | 0.0 | 0.0 | 0.00 | 0.00 | 0.00 | 93 | 1010.8 |
| 20260506151538 | 36 | 0 | 0.0 | 0.0 | 0.00 | 0.00 | 0.00 | 93 | 1010.9 |
| 20260506151009 | 36 | 0 | 0.0 | 0.0 | 0.00 | 0.00 | 0.00 | 93 | 1010.9 |
| 20260506150509 | 36 | 0 | 0.0 | 0.0 | 0.00 | 0.00 | 0.00 | 93 | 1010.9 |
| 20260506150028 | 36 | 0 | 0.0 | 0.0 | 0.00 | 0.00 | 0.00 | 93 | 1010.9 |
| 20260506145512 | 36 | 0 | 0.0 | 0.0 | 0.00 | 0.00 | 0.00 | 93 | 1010.9 |
| 20260506145011 | 36 | 0 | 0.0 | 0.0 | 0.00 | 0.00 | 0.00 | 93 | 1010.8 |
| 20260506144529 | 36 | 0 | 0.0 | 0.0 | 0.00 | 0.00 | 0.00 | 92 | 1010.8 |
| 20260506144010 | 36 | 0 | 0.0 | 0.0 | 0.00 | 0.00 | 0.00 | 92 | 1010.9 |
| 20260506143510 | 36 | 0 | 0.0 | 0.0 | 0.00 | 0.00 | 0.00 | 92 | 1010.8 |
| 20260506143032 | 36 | 0 | 0.0 | 0.0 | 0.00 | 0.00 | 0.00 | 92 | 1010.8 |
| 20260506142510 | 36 | 0 | 0.0 | 0.0 | 0.00 | 0.00 | 0.00 | 93 | 1010.8 |
| 20260506142010 | 36 | 0 | 0.0 | 0.0 | 0.00 | 0.00 | 0.00 | 93 | 1010.9 |
| 20260506141526 | 36 | 0 | 0.0 | 0.0 | 0.00 | 0.00 | 0.00 | 93 | 1010.9 |
| 20260506141016 | 35 | 0 | 0.0 | 0.0 | 0.00 | 0.00 | 0.00 | 92 | 1010.8 |
| 20260506140511 | 35 | 0 | 0.0 | 0.0 | 0.00 | 0.00 | 0.00 | 91 | 1010.8 |
| 20260506140033 | 35 | 0 | 0.0 | 0.0 | 0.00 | 0.00 | 0.00 | 91 | 1010.8 |
| 20260506135514 | 36 | 0 | 0.0 | 0.0 | 0.00 | 0.00 | 0.00 | 91 | 1010.8 |
| 20260506135009 | 36 | 0 | 0.0 | 0.0 | 0.00 | 0.00 | 0.00 | 91 | 1010.8 |
| 20260506134528 | 36 | 0 | 0.0 | 0.0 | 0.00 | 0.00 | 0.00 | 90 | 1010.7 |
| 20260506134017 | 36 | 0 | 0.0 | 0.0 | 0.00 | 0.00 | 0.00 | 90 | 1010.8 |
| 20260506133508 | 37 | 0 | 0.0 | 0.0 | 0.00 | 0.00 | 0.00 | 90 | 1010.8 |
| 20260506133029 | 37 | 0 | 0.0 | 0.0 | 0.00 | 0.00 | 0.00 | 89 | 1010.7 |
| 20260506132513 | 37 | 0 | 0.0 | 0.0 | 0.00 | 0.00 | 0.00 | 89 | 1010.7 |
| 20260506132010 | 37 | 0 | 0.0 | 0.0 | 0.00 | 0.00 | 0.00 | 89 | 1010.8 |
| 20260506131535 | 38 | 0 | 0.0 | 0.0 | 0.00 | 0.00 | 0.00 | 89 | 1010.7 |
| 20260506131012 | 38 | 0 | 0.0 | 0.0 | 0.00 | 0.00 | 0.00 | 89 | 1010.7 |
| 20260506130512 | 38 | 0 | 0.0 | 0.0 | 0.00 | 0.00 | 0.00 | 88 | 1010.8 |
| 20260506130030 | 38 | 0 | 0.0 | 0.0 | 0.00 | 0.00 | 0.00 | 88 | 1010.8 |
| 20260506125510 | 38 | 0 | 0.0 | 0.0 | 0.00 | 0.00 | 0.00 | 88 | 1010.7 |
| 20260506125010 | 38 | 0 | 0.0 | 0.0 | 0.00 | 0.00 | 0.00 | 87 | 1010.6 |
| 20260506124528 | 39 | 0 | 0.0 | 0.0 | 0.00 | 0.00 | 0.00 | 85 | 1010.7 |
| 20260506124011 | 39 | 0 | 0.0 | 0.0 | 0.00 | 0.00 | 0.00 | 84 | 1010.7 |
| 20260506123510 | 39 | 0 | 0.0 | 0.0 | 0.00 | 0.00 | 0.00 | 83 | 1010.7 |
| 20260506123028 | 39 | 0 | 0.0 | 0.0 | 0.00 | 0.00 | 0.00 | 82 | 1010.7 |
| 20260506122509 | 39 | 0 | 0.0 | 0.0 | 0.00 | 0.00 | 0.00 | 80 | 1010.6 |
| 20260506122010 | 39 | 0 | 0.0 | 0.0 | 0.00 | 0.00 | 0.00 | 79 | 1010.7 |
| 20260506121527 | 39 | 0 | 0.0 | 0.0 | 0.00 | 0.00 | 0.00 | 79 | 1010.7 |
| 20260506121009 | 39 | 0 | 0.0 | 0.0 | 0.00 | 0.00 | 0.00 | 78 | 1010.6 |
| 20260506120510 | 40 | 0 | 0.0 | 0.0 | 0.00 | 0.00 | 0.00 | 78 | 1010.6 |
| 20260506120028 | 40 | 0 | 0.0 | 0.0 | 0.00 | 0.00 | 0.00 | 78 | 1010.5 |
| 20260506115510 | 40 | 0 | 0.0 | 0.0 | 0.00 | 0.00 | 0.00 | 78 | 1010.6 |
| 20260506115009 | 40 | 0 | 0.0 | 0.0 | 0.00 | 0.00 | 0.00 | 77 | 1010.6 |
| 20260506114528 | 40 | 0 | 0.0 | 0.0 | 0.00 | 0.00 | 0.00 | 76 | 1010.4 |
| 20260506114010 | 40 | 0 | 0.0 | 0.0 | 0.00 | 0.00 | 0.00 | 76 | 1010.5 |
| 20260506113509 | 40 | 0 | 0.0 | 0.0 | 0.00 | 0.00 | 0.00 | 75 | 1010.5 |
| 20260506113030 | 41 | 0 | 0.0 | 0.0 | 0.00 | 0.00 | 0.00 | 75 | 1010.5 |
| 20260506112509 | 41 | 0 | 0.0 | 1.0 | 0.00 | 0.00 | 0.00 | 74 | 1010.5 |
| 20260506112009 | 41 | 0 | 0.0 | 1.0 | 0.00 | 0.00 | 0.00 | 74 | 1010.3 |
| 20260506111530 | 41 | 263 | 0.0 | 2.0 | 0.00 | 0.00 | 0.00 | 74 | 1010.4 |
| 20260506111009 | 41 | 0 | 0.0 | 2.0 | 0.00 | 0.00 | 0.00 | 73 | 1010.2 |
| 20260506110510 | 41 | 261 | 1.0 | 2.0 | 0.00 | 0.00 | 0.00 | 73 | 1010.2 |
| 20260506110030 | 42 | 0 | 0.0 | 1.0 | 0.00 | 0.00 | 0.00 | 71 | 1010.2 |
| 20260506105510 | 42 | 253 | 0.0 | 2.0 | 0.00 | 0.00 | 0.00 | 71 | 1010.3 |
| 20260506105013 | 42 | 0 | 1.0 | 2.0 | 0.00 | 0.00 | 0.00 | 71 | 1010.2 |
| 20260506104529 | 42 | 269 | 0.0 | 2.0 | 0.00 | 0.00 | 0.00 | 71 | 1010.0 |
| 20260506104012 | 42 | 248 | 0.0 | 4.0 | 0.00 | 0.00 | 0.00 | 71 | 1010.0 |
| 20260506103511 | 42 | 277 | 0.0 | 5.0 | 0.00 | 0.00 | 0.00 | 71 | 1009.9 |
| 20260506103027 | 42 | 236 | 1.0 | 5.0 | 0.00 | 0.00 | 0.00 | 70 | 1009.8 |
| 20260506102510 | 42 | 217 | 2.0 | 5.0 | 0.00 | 0.00 | 0.00 | 69 | 1009.8 |
| 20260506102008 | 42 | 0 | 0.0 | 1.0 | 0.00 | 0.00 | 0.00 | 68 | 1009.7 |
| 20260506101528 | 41 | 340 | 0.0 | 1.0 | 0.00 | 0.00 | 0.00 | 70 | 1009.5 |
| 20260506101010 | 41 | 0 | 0.0 | 0.0 | 0.00 | 0.00 | 0.00 | 69 | 1009.5 |
| 20260506100511 | 41 | 0 | 0.0 | 0.0 | 0.00 | 0.00 | 0.00 | 69 | 1009.4 |
| 20260506100031 | 41 | 0 | 0.0 | 1.0 | 0.00 | 0.00 | 0.00 | 68 | 1009.2 |
| 20260506095511 | 41 | 0 | 0.0 | 1.0 | 0.00 | 0.00 | 0.00 | 70 | 1009.2 |
| 20260506095011 | 41 | 0 | 0.0 | 1.0 | 0.00 | 0.00 | 0.00 | 68 | 1009.2 |
| 20260506094528 | 41 | 0 | 0.0 | 1.0 | 0.00 | 0.00 | 0.00 | 68 | 1009.1 |
| 20260506094010 | 41 | 0 | 0.0 | 1.0 | 0.00 | 0.00 | 0.00 | 68 | 1009.2 |
| 20260506093512 | 41 | 0 | 0.0 | 1.0 | 0.00 | 0.00 | 0.00 | 69 | 1009.2 |
| 20260506093029 | 41 | 0 | 0.0 | 1.0 | 0.00 | 0.00 | 0.00 | 69 | 1009.1 |
| 20260506092510 | 41 | 0 | 0.0 | 0.0 | 0.00 | 0.00 | 0.00 | 70 | 1009.1 |
| 20260506092011 | 41 | 0 | 0.0 | 0.0 | 0.00 | 0.00 | 0.00 | 70 | 1009.1 |
| 20260506091530 | 41 | 0 | 0.0 | 0.0 | 0.00 | 0.00 | 0.00 | 69 | 1008.9 |
| 20260506091015 | 41 | 0 | 0.0 | 1.0 | 0.00 | 0.00 | 0.00 | 70 | 1008.9 |
| 20260506090509 | 41 | 0 | 0.0 | 1.0 | 0.00 | 0.00 | 0.00 | 70 | 1008.8 |
| 20260506090029 | 41 | 0 | 0.0 | 0.0 | 0.00 | 0.00 | 0.00 | 70 | 1008.9 |
| 20260506085510 | 41 | 0 | 0.0 | 1.0 | 0.00 | 0.00 | 0.00 | 70 | 1008.9 |
| 20260506085009 | 41 | 0 | 0.0 | 1.0 | 0.00 | 0.00 | 0.00 | 70 | 1008.8 |
| 20260506084537 | 41 | 0 | 0.0 | 0.0 | 0.00 | 0.00 | 0.00 | 71 | 1008.8 |
| 20260506084010 | 41 | 0 | 0.0 | 0.0 | 0.00 | 0.00 | 0.00 | 71 | 1008.8 |
| 20260506083510 | 40 | 0 | 0.0 | 0.0 | 0.00 | 0.00 | 0.00 | 72 | 1008.8 |
| 20260506083032 | 40 | 0 | 0.0 | 0.0 | 0.00 | 0.00 | 0.00 | 73 | 1008.6 |
| 20260506082509 | 40 | 0 | 0.0 | 0.0 | 0.00 | 0.00 | 0.00 | 74 | 1008.6 |
| 20260506082011 | 40 | 0 | 0.0 | 0.0 | 0.00 | 0.00 | 0.00 | 75 | 1008.7 |
| 20260506081530 | 40 | 0 | 0.0 | 0.0 | 0.00 | 0.00 | 0.00 | 75 | 1008.7 |
| 20260506081012 | 40 | 0 | 0.0 | 0.0 | 0.00 | 0.00 | 0.00 | 77 | 1008.6 |
| 20260506080509 | 40 | 0 | 0.0 | 0.0 | 0.00 | 0.00 | 0.00 | 79 | 1008.6 |
| 20260506073514 | 41 | 0 | 0.0 | 0.0 | 0.00 | 0.00 | 0.00 | 75 | 1008.5 |
| 20260506073028 | 41 | 0 | 0.0 | 0.0 | 0.00 | 0.00 | 0.00 | 75 | 1008.5 |
| 20260506072510 | 41 | 0 | 0.0 | 0.0 | 0.00 | 0.00 | 0.00 | 75 | 1008.5 |
| 20260506072011 | 41 | 0 | 0.0 | 0.0 | 0.00 | 0.00 | 0.00 | 74 | 1008.4 |
| 20260506071531 | 42 | 0 | 0.0 | 1.0 | 0.00 | 0.00 | 0.00 | 75 | 1008.3 |
| 20260506071009 | 42 | 335 | 0.0 | 1.0 | 0.00 | 0.00 | 0.00 | 74 | 1008.3 |
| 20260506070510 | 42 | 0 | 0.0 | 1.0 | 0.00 | 0.00 | 0.00 | 73 | 1008.1 |